Location: Castillon
(43.0896°N, 0.2156°E)
Time: 17:20:19
(UTC+00:00)

COSMOS 2428 - Pass Details

Date: 16 June 2021
Orbit: 845 x 857 km, 70.9° (Epoch: 04 August)

Event Time Altitude Azimuth Distance (km) Brightness Sun altitude
Exits shadow 22:01:04 31° 158° (SSE) 1,455 3.4 -18.1°
Maximum altitude 22:03:16 46° 107° (ESE) 1,142 3.1 -18.3°
Drops below altitude 10° 22:08:43 10° 36° (NE) 2,499 5.5 -18.8°
Sets 22:11:16 0° 31° (NNE) 3,440 6.3 -19.0°
